Year,Month,Day,Hour,Minute,Value (Times are PST for temperature in C)
2007,05,31,00,00,14.10
2007,05,31,00,01,14.10
2007,05,31,00,02,14.10
2007,05,31,00,03,14.10
2007,05,31,00,04,14.10
2007,05,31,00,05,14.10
2007,05,31,00,06,14.00
2007,05,31,00,07,14.00
2007,05,31,00,08,14.00
2007,05,31,00,09,14.00
2007,05,31,00,10,14.00
2007,05,31,00,11,13.90
2007,05,31,00,12,13.90
2007,05,31,00,13,13.90
2007,05,31,00,14,13.90
2007,05,31,00,15,13.90
2007,05,31,00,16,13.90
2007,05,31,00,17,13.90
2007,05,31,00,18,13.90
2007,05,31,00,19,13.90
2007,05,31,00,20,13.90
2007,05,31,00,21,13.90
2007,05,31,00,22,13.90
2007,05,31,00,23,13.90
2007,05,31,00,24,13.90
2007,05,31,00,25,13.90
2007,05,31,00,26,13.80
2007,05,31,00,27,13.80
2007,05,31,00,28,13.80
2007,05,31,00,29,13.80
2007,05,31,00,30,13.70
2007,05,31,00,31,13.70
2007,05,31,00,32,13.70
2007,05,31,00,33,13.70
2007,05,31,00,34,13.70
2007,05,31,00,35,13.60
2007,05,31,00,36,13.60
2007,05,31,00,37,13.60
2007,05,31,00,38,13.60
2007,05,31,00,39,13.60
2007,05,31,00,40,13.60
2007,05,31,00,41,13.60
2007,05,31,00,42,13.50
2007,05,31,00,43,13.50
2007,05,31,00,44,13.50
2007,05,31,00,45,13.50
2007,05,31,00,46,13.50
2007,05,31,00,47,13.40
2007,05,31,00,48,13.40
2007,05,31,00,49,13.40
2007,05,31,00,50,13.40
2007,05,31,00,51,13.40
2007,05,31,00,52,13.40
2007,05,31,00,53,13.40
2007,05,31,00,54,13.30
2007,05,31,00,55,13.30
2007,05,31,00,56,13.30
2007,05,31,00,57,13.30
2007,05,31,00,58,13.30
2007,05,31,00,59,13.30
2007,05,31,01,00,13.30
2007,05,31,01,01,13.20
2007,05,31,01,02,13.20
2007,05,31,01,03,13.20
2007,05,31,01,04,13.20
2007,05,31,01,05,13.20
2007,05,31,01,06,13.20
2007,05,31,01,07,13.20
2007,05,31,01,08,13.20
2007,05,31,01,09,13.20
2007,05,31,01,10,13.20
2007,05,31,01,11,13.20
2007,05,31,01,12,13.20
2007,05,31,01,13,13.20
2007,05,31,01,14,13.20
2007,05,31,01,15,13.20
2007,05,31,01,16,13.30
2007,05,31,01,17,13.20
2007,05,31,01,18,13.20
2007,05,31,01,19,13.20
2007,05,31,01,20,13.20
2007,05,31,01,21,13.20
2007,05,31,01,22,13.30
2007,05,31,01,23,13.30
2007,05,31,01,24,13.30
2007,05,31,01,25,13.30
2007,05,31,01,26,13.30
2007,05,31,01,27,13.20
2007,05,31,01,28,13.20
2007,05,31,01,29,13.20
2007,05,31,01,30,13.20
2007,05,31,01,31,13.10
2007,05,31,01,32,13.10
2007,05,31,01,33,13.00
2007,05,31,01,34,13.00
2007,05,31,01,35,13.00
2007,05,31,01,36,12.90
2007,05,31,01,37,12.90
2007,05,31,01,38,12.90
2007,05,31,01,39,12.90
2007,05,31,01,40,12.80
2007,05,31,01,41,12.80
2007,05,31,01,42,12.80
2007,05,31,01,43,12.80
2007,05,31,01,44,12.80
2007,05,31,01,45,12.80
2007,05,31,01,46,12.80
2007,05,31,01,47,12.80
2007,05,31,01,48,12.80
2007,05,31,01,49,12.70
2007,05,31,01,50,12.70
2007,05,31,01,51,12.70
2007,05,31,01,52,12.70
2007,05,31,01,53,12.70
2007,05,31,01,54,12.70
2007,05,31,01,55,12.70
2007,05,31,01,56,12.70
2007,05,31,01,57,12.70
2007,05,31,01,58,12.70
2007,05,31,01,59,12.70
2007,05,31,02,00,12.70
2007,05,31,02,01,12.70
2007,05,31,02,02,12.60
2007,05,31,02,03,12.60
2007,05,31,02,04,12.60
2007,05,31,02,05,12.60
2007,05,31,02,06,12.60
2007,05,31,02,07,12.60
2007,05,31,02,08,12.60
2007,05,31,02,09,12.60
2007,05,31,02,10,12.60
2007,05,31,02,11,12.60
2007,05,31,02,12,12.60
2007,05,31,02,13,12.50
2007,05,31,02,14,12.50
2007,05,31,02,15,12.50
2007,05,31,02,16,12.40
2007,05,31,02,17,12.40
2007,05,31,02,18,12.40
2007,05,31,02,19,12.40
2007,05,31,02,20,12.30
2007,05,31,02,21,12.30
2007,05,31,02,22,12.30
2007,05,31,02,23,12.20
2007,05,31,02,24,12.20
2007,05,31,02,25,12.20
2007,05,31,02,26,12.20
2007,05,31,02,27,12.20
2007,05,31,02,28,12.10
2007,05,31,02,29,12.10
2007,05,31,02,30,12.10
2007,05,31,02,31,12.10
2007,05,31,02,32,12.00
2007,05,31,02,33,12.00
2007,05,31,02,34,11.90
2007,05,31,02,35,11.90
2007,05,31,02,36,11.90
2007,05,31,02,37,11.90
2007,05,31,02,38,11.80
2007,05,31,02,39,11.80
2007,05,31,02,40,11.80
2007,05,31,02,41,11.80
2007,05,31,02,42,11.80
2007,05,31,02,43,11.80
2007,05,31,02,44,11.80
2007,05,31,02,45,11.80
2007,05,31,02,46,11.70
2007,05,31,02,47,11.70
2007,05,31,02,48,11.70
2007,05,31,02,49,11.70
2007,05,31,02,50,11.70
2007,05,31,02,51,11.70
2007,05,31,02,52,11.70
2007,05,31,02,53,11.70
2007,05,31,02,54,11.70
2007,05,31,02,55,11.60
2007,05,31,02,56,11.60
2007,05,31,02,57,11.60
2007,05,31,02,58,11.60
2007,05,31,02,59,11.60
2007,05,31,03,00,11.60
2007,05,31,03,01,11.60
2007,05,31,03,02,11.60
2007,05,31,03,03,11.70
2007,05,31,03,04,11.70
2007,05,31,03,05,11.70
2007,05,31,03,06,11.80
2007,05,31,03,07,11.80
2007,05,31,03,08,11.80
2007,05,31,03,09,11.80
2007,05,31,03,10,11.80
2007,05,31,03,11,11.90
2007,05,31,03,12,11.90
2007,05,31,03,13,11.90
2007,05,31,03,14,11.90
2007,05,31,03,15,11.90
2007,05,31,03,16,11.90
2007,05,31,03,17,11.90
2007,05,31,03,18,11.90
2007,05,31,03,19,11.90
2007,05,31,03,20,12.00
2007,05,31,03,21,12.00
2007,05,31,03,22,12.00
2007,05,31,03,23,12.00
2007,05,31,03,24,12.00
2007,05,31,03,25,11.90
2007,05,31,03,26,12.00
2007,05,31,03,27,11.90
2007,05,31,03,28,11.90
2007,05,31,03,29,11.90
2007,05,31,03,30,11.90
2007,05,31,03,31,11.90
2007,05,31,03,32,11.90
2007,05,31,03,33,11.90
2007,05,31,03,34,11.90
2007,05,31,03,35,11.90
2007,05,31,03,36,11.90
2007,05,31,03,37,12.00
2007,05,31,03,38,12.00
2007,05,31,03,39,12.00
2007,05,31,03,40,12.00
2007,05,31,03,41,11.90
2007,05,31,03,42,11.90
2007,05,31,03,43,11.90
2007,05,31,03,44,11.90
2007,05,31,03,45,11.90
2007,05,31,03,46,11.90
2007,05,31,03,47,11.90
2007,05,31,03,48,11.90
2007,05,31,03,49,11.90
2007,05,31,03,50,11.90
2007,05,31,03,51,11.90
2007,05,31,03,52,11.90
2007,05,31,03,53,11.90
2007,05,31,03,54,11.80
2007,05,31,03,55,11.80
2007,05,31,03,56,11.80
2007,05,31,03,57,11.80
2007,05,31,03,58,11.80
2007,05,31,03,59,11.80
2007,05,31,04,00,11.80
2007,05,31,04,01,11.80
2007,05,31,04,02,11.80
2007,05,31,04,03,11.70
2007,05,31,04,04,11.70
2007,05,31,04,05,11.70
2007,05,31,04,06,11.70
2007,05,31,04,07,11.80
2007,05,31,04,08,11.80
2007,05,31,04,09,11.80
2007,05,31,04,10,11.80
2007,05,31,04,11,11.80
2007,05,31,04,12,11.90
2007,05,31,04,13,12.00
2007,05,31,04,14,12.10
2007,05,31,04,15,12.20
2007,05,31,04,16,12.30
2007,05,31,04,17,12.40
2007,05,31,04,18,12.40
2007,05,31,04,19,12.40
2007,05,31,04,20,12.40
2007,05,31,04,21,12.40
2007,05,31,04,22,12.40
2007,05,31,04,23,12.40
2007,05,31,04,24,12.40
2007,05,31,04,25,12.30
2007,05,31,04,26,12.30
2007,05,31,04,27,12.30
2007,05,31,04,28,12.30
2007,05,31,04,29,12.20
2007,05,31,04,30,12.20
2007,05,31,04,31,12.20
2007,05,31,04,32,12.20
2007,05,31,04,33,12.10
2007,05,31,04,34,12.10
2007,05,31,04,35,12.10
2007,05,31,04,36,12.10
2007,05,31,04,37,12.10
2007,05,31,04,38,12.10
2007,05,31,04,39,12.10
2007,05,31,04,40,12.10
2007,05,31,04,41,12.10
2007,05,31,04,42,12.00
2007,05,31,04,43,12.00
2007,05,31,04,44,12.00
2007,05,31,04,45,11.90
2007,05,31,04,46,11.90
2007,05,31,04,47,11.90
2007,05,31,04,48,11.80
2007,05,31,04,49,11.80
2007,05,31,04,50,11.80
2007,05,31,04,51,11.80
2007,05,31,04,52,11.70
2007,05,31,04,53,11.70
2007,05,31,04,54,11.70
2007,05,31,04,55,11.70
2007,05,31,04,56,11.70
2007,05,31,04,57,11.70
2007,05,31,04,58,11.70
2007,05,31,04,59,11.70
2007,05,31,05,00,11.70
2007,05,31,05,01,11.70
2007,05,31,05,02,11.70
2007,05,31,05,03,11.70
2007,05,31,05,04,11.70
2007,05,31,05,05,11.80
2007,05,31,05,06,11.80
2007,05,31,05,07,11.80
2007,05,31,05,08,11.80
2007,05,31,05,09,11.80
2007,05,31,05,10,11.80
2007,05,31,05,11,11.80
2007,05,31,05,12,11.80
2007,05,31,05,13,11.80
2007,05,31,05,14,11.80
2007,05,31,05,15,11.80
2007,05,31,05,16,11.80
2007,05,31,05,17,11.80
2007,05,31,05,18,11.80
2007,05,31,05,19,11.80
2007,05,31,05,20,11.80
2007,05,31,05,21,11.80
2007,05,31,05,22,11.70
2007,05,31,05,23,11.70
2007,05,31,05,24,11.70
2007,05,31,05,25,11.70
2007,05,31,05,26,11.70
2007,05,31,05,27,11.60
2007,05,31,05,28,11.60
2007,05,31,05,29,11.60
2007,05,31,05,30,11.50
2007,05,31,05,31,11.50
2007,05,31,05,32,11.50
2007,05,31,05,33,11.50
2007,05,31,05,34,11.50
2007,05,31,05,35,11.40
2007,05,31,05,36,11.40
2007,05,31,05,37,11.40
2007,05,31,05,38,11.40
2007,05,31,05,39,11.40
2007,05,31,05,40,11.40
2007,05,31,05,41,11.30
2007,05,31,05,42,11.30
2007,05,31,05,43,11.30
2007,05,31,05,44,11.30
2007,05,31,05,45,11.30
2007,05,31,05,46,11.30
2007,05,31,05,47,11.30
2007,05,31,05,48,11.40
2007,05,31,05,49,11.40
2007,05,31,05,50,11.40
2007,05,31,05,51,11.40
2007,05,31,05,52,11.40
2007,05,31,05,53,11.40
2007,05,31,05,54,11.40
2007,05,31,05,55,11.50
2007,05,31,05,56,11.50
2007,05,31,05,57,11.50
2007,05,31,05,58,11.50
2007,05,31,05,59,11.40
2007,05,31,06,00,11.40
2007,05,31,06,01,11.40
2007,05,31,06,02,11.40
2007,05,31,06,03,11.40
2007,05,31,06,04,11.30
2007,05,31,06,05,11.30
2007,05,31,06,06,11.30
2007,05,31,06,07,11.30
2007,05,31,06,08,11.30
2007,05,31,06,09,11.30
2007,05,31,06,10,11.30
2007,05,31,06,11,11.30
2007,05,31,06,12,11.30
2007,05,31,06,13,11.30
2007,05,31,06,14,11.30
2007,05,31,06,15,11.40
2007,05,31,06,16,11.40
2007,05,31,06,17,11.40
2007,05,31,06,18,11.50
2007,05,31,06,19,11.60
2007,05,31,06,20,11.60
2007,05,31,06,21,11.70
2007,05,31,06,22,11.70
2007,05,31,06,23,11.80
2007,05,31,06,24,11.80
2007,05,31,06,25,11.90
2007,05,31,06,26,11.90
2007,05,31,06,27,12.00
2007,05,31,06,28,12.00
2007,05,31,06,29,12.00
2007,05,31,06,30,12.10
2007,05,31,06,31,12.10
2007,05,31,06,32,12.10
2007,05,31,06,33,12.20
2007,05,31,06,34,12.20
2007,05,31,06,35,12.30
2007,05,31,06,36,12.30
2007,05,31,06,37,12.40
2007,05,31,06,38,12.40
2007,05,31,06,39,12.50
2007,05,31,06,40,12.50
2007,05,31,06,41,12.60
2007,05,31,06,42,12.70
2007,05,31,06,43,12.70
2007,05,31,06,44,12.80
2007,05,31,06,45,12.80
2007,05,31,06,46,12.90
2007,05,31,06,47,13.00
2007,05,31,06,48,13.10
2007,05,31,06,49,13.20
2007,05,31,06,50,13.30
2007,05,31,06,51,13.30
2007,05,31,06,52,13.40
2007,05,31,06,53,13.40
2007,05,31,06,54,13.40
2007,05,31,06,55,13.50
2007,05,31,06,56,13.50
2007,05,31,06,57,13.60
2007,05,31,06,58,13.60
2007,05,31,06,59,13.70
2007,05,31,07,00,13.70
2007,05,31,07,01,13.70
2007,05,31,07,02,13.80
2007,05,31,07,03,13.80
2007,05,31,07,04,13.80
2007,05,31,07,05,13.90
2007,05,31,07,06,13.90
2007,05,31,07,07,14.00
2007,05,31,07,08,14.00
2007,05,31,07,09,14.10
2007,05,31,07,10,14.10
2007,05,31,07,11,14.20
2007,05,31,07,12,14.20
2007,05,31,07,13,14.30
2007,05,31,07,14,14.30
2007,05,31,07,15,14.40
2007,05,31,07,16,14.40
2007,05,31,07,17,14.50
2007,05,31,07,18,14.50
2007,05,31,07,19,14.60
2007,05,31,07,20,14.60
2007,05,31,07,21,14.60
2007,05,31,07,22,14.60
2007,05,31,07,23,14.60
2007,05,31,07,24,14.60
2007,05,31,07,25,14.60
2007,05,31,07,26,14.60
2007,05,31,07,27,14.60
2007,05,31,07,28,14.70
2007,05,31,07,29,14.70
2007,05,31,07,30,14.80
2007,05,31,07,31,14.80
2007,05,31,07,32,14.90
2007,05,31,07,33,15.00
2007,05,31,07,34,15.00
2007,05,31,07,35,15.00
2007,05,31,07,36,15.00
2007,05,31,07,37,15.10
2007,05,31,07,38,15.20
2007,05,31,07,39,15.30
2007,05,31,07,40,15.30
2007,05,31,07,41,15.30
2007,05,31,07,42,15.30
2007,05,31,07,43,15.30
2007,05,31,07,44,15.40
2007,05,31,07,45,15.40
2007,05,31,07,46,15.40
2007,05,31,07,47,15.40
2007,05,31,07,48,15.40
2007,05,31,07,49,15.40
2007,05,31,07,50,15.50
2007,05,31,07,51,15.50
2007,05,31,07,52,15.60
2007,05,31,07,53,15.60
2007,05,31,07,54,15.70
2007,05,31,07,55,15.80
2007,05,31,07,56,15.90
2007,05,31,07,57,16.00
2007,05,31,07,58,16.10
2007,05,31,07,59,16.20
2007,05,31,08,00,16.20
2007,05,31,08,01,16.20
2007,05,31,08,02,16.30
2007,05,31,08,03,16.30
2007,05,31,08,04,16.30
2007,05,31,08,05,16.30
2007,05,31,08,06,16.40
2007,05,31,08,07,16.40
2007,05,31,08,08,16.40
2007,05,31,08,09,16.30
2007,05,31,08,10,16.30
2007,05,31,08,11,16.20
2007,05,31,08,12,16.10
2007,05,31,08,13,16.10
2007,05,31,08,14,16.10
2007,05,31,08,15,16.20
2007,05,31,08,16,16.20
2007,05,31,08,17,16.10
2007,05,31,08,18,16.20
2007,05,31,08,19,16.20
2007,05,31,08,20,16.20
2007,05,31,08,21,16.20
2007,05,31,08,22,16.10
2007,05,31,08,23,16.20
2007,05,31,08,24,16.10
2007,05,31,08,25,16.10
2007,05,31,08,26,16.10
2007,05,31,08,27,16.10
2007,05,31,08,28,16.20
2007,05,31,08,29,16.20
2007,05,31,08,30,16.20
2007,05,31,08,31,16.20
2007,05,31,08,32,16.20
2007,05,31,08,33,16.20
2007,05,31,08,34,16.20
2007,05,31,08,35,16.20
2007,05,31,08,36,16.20
2007,05,31,08,37,16.30
2007,05,31,08,38,16.30
2007,05,31,08,39,16.30
2007,05,31,08,40,16.40
2007,05,31,08,41,16.40
2007,05,31,08,42,16.40
2007,05,31,08,43,16.40
2007,05,31,08,44,16.50
2007,05,31,08,45,16.60
2007,05,31,08,46,16.60
2007,05,31,08,47,16.70
2007,05,31,08,48,16.80
2007,05,31,08,49,16.80
2007,05,31,08,50,16.90
2007,05,31,08,51,17.00
2007,05,31,08,52,17.20
2007,05,31,08,53,17.20
2007,05,31,08,54,17.30
2007,05,31,08,55,17.40
2007,05,31,08,56,17.50
2007,05,31,08,57,17.60
2007,05,31,08,58,17.60
2007,05,31,08,59,17.60
2007,05,31,09,00,17.60
2007,05,31,09,01,17.60
2007,05,31,09,02,17.60
2007,05,31,09,03,17.60
2007,05,31,09,04,17.60
2007,05,31,09,05,17.60
2007,05,31,09,06,17.60
2007,05,31,09,07,17.60
2007,05,31,09,08,17.70
2007,05,31,09,09,17.80
2007,05,31,09,10,18.00
2007,05,31,09,11,18.00
2007,05,31,09,12,18.00
2007,05,31,09,13,18.00
2007,05,31,09,14,18.00
2007,05,31,09,15,18.00
2007,05,31,09,16,17.90
2007,05,31,09,17,17.90
2007,05,31,09,18,17.90
2007,05,31,09,19,17.90
2007,05,31,09,20,17.90
2007,05,31,09,21,18.00
2007,05,31,09,22,18.00
2007,05,31,09,23,18.10
2007,05,31,09,24,18.10
2007,05,31,09,25,18.20
2007,05,31,09,26,18.20
2007,05,31,09,27,18.20
2007,05,31,09,28,18.20
2007,05,31,09,29,18.20
2007,05,31,09,30,18.20
2007,05,31,09,31,18.30
2007,05,31,09,32,18.30
2007,05,31,09,33,18.30
2007,05,31,09,34,18.30
2007,05,31,09,35,18.40
2007,05,31,09,36,18.50
2007,05,31,09,37,18.50
2007,05,31,09,38,18.40
2007,05,31,09,39,18.40
2007,05,31,09,40,18.30
2007,05,31,09,41,18.30
2007,05,31,09,42,18.50
2007,05,31,09,43,18.60
2007,05,31,09,44,18.60
2007,05,31,09,45,18.50
2007,05,31,09,46,18.50
2007,05,31,09,47,18.50
2007,05,31,09,50,18.40
2007,05,31,09,51,18.50
2007,05,31,09,52,18.50
2007,05,31,09,53,18.60
2007,05,31,09,54,18.70
2007,05,31,09,55,18.80
2007,05,31,09,56,18.80
2007,05,31,09,57,18.90
2007,05,31,09,58,18.90
2007,05,31,09,59,19.00
2007,05,31,10,00,19.10
2007,05,31,10,01,19.20
2007,05,31,10,02,19.30
2007,05,31,10,03,19.40
2007,05,31,10,04,19.40
2007,05,31,10,05,19.30
2007,05,31,10,06,19.30
2007,05,31,10,07,19.30
2007,05,31,10,08,19.20
2007,05,31,10,09,19.10
2007,05,31,10,10,19.00
2007,05,31,10,11,18.90
2007,05,31,10,12,18.90
2007,05,31,10,13,18.90
2007,05,31,10,14,19.10
2007,05,31,10,15,19.00
2007,05,31,10,16,18.90
2007,05,31,10,17,18.80
2007,05,31,10,18,18.70
2007,05,31,10,19,18.70
2007,05,31,10,20,18.70
2007,05,31,10,21,18.70
2007,05,31,10,22,18.70
2007,05,31,10,23,18.60
2007,05,31,10,24,18.70
2007,05,31,10,25,18.80
2007,05,31,10,26,18.80
2007,05,31,10,27,18.70
2007,05,31,10,28,18.70
2007,05,31,10,29,18.70
2007,05,31,10,30,18.80
2007,05,31,10,31,18.90
2007,05,31,10,32,19.00
2007,05,31,10,33,19.10
2007,05,31,10,34,19.20
2007,05,31,10,35,19.10
2007,05,31,10,36,19.10
2007,05,31,10,37,18.90
2007,05,31,10,38,18.80
2007,05,31,10,39,18.70
2007,05,31,10,40,18.70
2007,05,31,10,41,18.60
2007,05,31,10,42,18.50
2007,05,31,10,43,18.30
2007,05,31,10,44,18.20
2007,05,31,10,45,18.10
2007,05,31,10,46,18.00
2007,05,31,10,47,18.10
2007,05,31,10,48,18.20
2007,05,31,10,49,18.40
2007,05,31,10,50,18.50
2007,05,31,10,51,18.40
2007,05,31,10,52,18.30
2007,05,31,10,53,18.10
2007,05,31,10,54,18.00
2007,05,31,10,55,17.90
2007,05,31,10,56,17.90
2007,05,31,10,57,18.00
2007,05,31,10,58,17.90
2007,05,31,10,59,17.80
2007,05,31,11,00,17.80
2007,05,31,11,01,17.60
2007,05,31,11,02,17.40
2007,05,31,11,03,17.20
2007,05,31,11,04,17.20
2007,05,31,11,05,17.10
2007,05,31,11,06,17.10
2007,05,31,11,07,17.20
2007,05,31,11,08,17.20
2007,05,31,11,09,17.00
2007,05,31,11,10,16.90
2007,05,31,11,11,16.90
2007,05,31,11,12,16.90
2007,05,31,11,13,16.80
2007,05,31,11,14,16.70
2007,05,31,11,15,16.70
2007,05,31,11,16,16.60
2007,05,31,11,17,16.70
2007,05,31,11,18,16.70
2007,05,31,11,19,16.60
2007,05,31,11,20,16.50
2007,05,31,11,21,16.50
2007,05,31,11,22,16.50
2007,05,31,11,23,16.60
2007,05,31,11,24,16.50
2007,05,31,11,25,16.30
2007,05,31,11,26,16.30
2007,05,31,11,27,16.30
2007,05,31,11,28,16.40
2007,05,31,11,29,16.60
2007,05,31,11,30,16.70
2007,05,31,11,31,16.60
2007,05,31,11,32,16.60
2007,05,31,11,33,16.60
2007,05,31,11,34,16.60
2007,05,31,11,35,16.60
2007,05,31,11,36,16.60
2007,05,31,11,37,16.60
2007,05,31,11,38,16.60
2007,05,31,11,39,16.60
2007,05,31,11,40,16.60
2007,05,31,11,41,16.70
2007,05,31,11,42,16.70
2007,05,31,11,43,16.70
2007,05,31,11,44,16.80
2007,05,31,11,45,16.80
2007,05,31,11,46,16.80
2007,05,31,11,47,17.00
2007,05,31,11,48,17.20
2007,05,31,11,49,17.30
2007,05,31,11,50,17.20
2007,05,31,11,51,17.30
2007,05,31,11,52,17.20
2007,05,31,11,53,17.10
2007,05,31,11,54,17.00
2007,05,31,11,55,16.80
2007,05,31,11,56,16.90
2007,05,31,11,57,17.00
2007,05,31,11,58,17.10
2007,05,31,11,59,17.20
2007,05,31,12,00,17.30
2007,05,31,12,01,17.20
2007,05,31,12,02,17.10
2007,05,31,12,03,17.10
2007,05,31,12,04,17.10
2007,05,31,12,05,17.00
2007,05,31,12,06,16.90
2007,05,31,12,07,17.00
2007,05,31,12,08,17.10
2007,05,31,12,09,17.20
2007,05,31,12,10,17.20
2007,05,31,12,11,17.20
2007,05,31,12,12,17.10
2007,05,31,12,13,17.10
2007,05,31,12,14,17.10
2007,05,31,12,15,17.20
2007,05,31,12,16,17.30
2007,05,31,12,17,17.40
2007,05,31,12,18,17.50
2007,05,31,12,19,17.60
2007,05,31,12,20,17.80
2007,05,31,12,21,17.80
2007,05,31,12,22,17.80
2007,05,31,12,23,17.70
2007,05,31,12,24,17.60
2007,05,31,12,25,17.70
2007,05,31,12,26,17.80
2007,05,31,12,27,17.90
2007,05,31,12,28,17.90
2007,05,31,12,29,17.90
2007,05,31,12,30,17.70
2007,05,31,12,31,17.60
2007,05,31,12,32,17.40
2007,05,31,12,33,17.30
2007,05,31,12,34,17.40
2007,05,31,12,35,17.40
2007,05,31,12,36,17.50
2007,05,31,12,37,17.50
2007,05,31,12,38,17.50
2007,05,31,12,39,17.40
2007,05,31,12,40,17.30
2007,05,31,12,41,17.20
2007,05,31,12,42,17.10
2007,05,31,12,43,17.00
2007,05,31,12,44,17.00
2007,05,31,12,45,17.00
2007,05,31,12,46,17.00
2007,05,31,12,47,17.00
2007,05,31,12,48,17.00
2007,05,31,12,49,17.00
2007,05,31,12,50,17.10
2007,05,31,12,51,17.20
2007,05,31,12,52,17.20
2007,05,31,12,53,17.20
2007,05,31,12,54,17.30
2007,05,31,12,55,17.40
2007,05,31,12,56,17.40
2007,05,31,12,57,17.50
2007,05,31,12,58,17.60
2007,05,31,12,59,17.70
2007,05,31,13,00,17.80
2007,05,31,13,01,17.90
2007,05,31,13,02,17.90
2007,05,31,13,03,17.90
2007,05,31,13,04,18.00
2007,05,31,13,05,18.00
2007,05,31,13,06,18.00
2007,05,31,13,07,17.90
2007,05,31,13,08,17.90
2007,05,31,13,09,18.00
2007,05,31,13,10,18.10
2007,05,31,13,11,18.30
2007,05,31,13,12,18.50
2007,05,31,13,13,18.60
2007,05,31,13,14,18.80
2007,05,31,13,15,18.90
2007,05,31,13,16,19.00
2007,05,31,13,17,19.10
2007,05,31,13,18,19.00
2007,05,31,13,19,18.90
2007,05,31,13,20,18.80
2007,05,31,13,21,18.70
2007,05,31,13,22,18.60
2007,05,31,13,23,18.50
2007,05,31,13,24,18.50
2007,05,31,13,25,18.50
2007,05,31,13,26,18.50
2007,05,31,13,27,18.60
2007,05,31,13,28,18.80
2007,05,31,13,29,18.90
2007,05,31,13,30,19.10
2007,05,31,13,31,19.30
2007,05,31,13,32,19.30
2007,05,31,13,33,19.40
2007,05,31,13,34,19.50
2007,05,31,13,35,19.50
2007,05,31,13,36,19.60
2007,05,31,13,37,19.70
2007,05,31,13,38,19.70
2007,05,31,13,39,19.80
2007,05,31,13,40,20.10
2007,05,31,13,41,20.30
2007,05,31,13,42,20.50
2007,05,31,13,43,20.70
2007,05,31,13,44,20.90
2007,05,31,13,45,21.20
2007,05,31,13,46,21.20
2007,05,31,13,47,21.40
2007,05,31,13,48,21.40
2007,05,31,13,49,21.40
2007,05,31,13,50,21.40
2007,05,31,13,51,21.40
2007,05,31,13,52,21.40
2007,05,31,13,53,21.50
2007,05,31,13,54,21.50
2007,05,31,13,55,21.40
2007,05,31,13,56,21.30
2007,05,31,13,57,21.20
2007,05,31,13,58,21.10
2007,05,31,13,59,21.10
2007,05,31,14,00,21.10
2007,05,31,14,01,21.10
2007,05,31,14,02,21.10
2007,05,31,14,03,20.90
2007,05,31,14,04,20.90
2007,05,31,14,05,20.90
2007,05,31,14,06,20.90
2007,05,31,14,07,20.80
2007,05,31,14,08,20.70
2007,05,31,14,09,20.60
2007,05,31,14,10,20.60
2007,05,31,14,11,20.50
2007,05,31,14,12,20.50
2007,05,31,14,13,20.60
2007,05,31,14,14,20.60
2007,05,31,14,15,20.50
2007,05,31,14,16,20.40
2007,05,31,14,17,20.40
2007,05,31,14,18,20.40
2007,05,31,14,19,20.50
2007,05,31,14,20,20.60
2007,05,31,14,21,20.60
2007,05,31,14,22,20.60
2007,05,31,14,23,20.60
2007,05,31,14,24,20.70
2007,05,31,14,25,20.80
2007,05,31,14,26,20.80
2007,05,31,14,27,20.80
2007,05,31,14,28,20.60
2007,05,31,14,29,20.50
2007,05,31,14,30,20.30
2007,05,31,14,31,19.90
2007,05,31,14,32,19.50
2007,05,31,14,33,19.10
2007,05,31,14,34,18.80
2007,05,31,14,35,18.40
2007,05,31,14,36,18.10
2007,05,31,14,37,17.70
2007,05,31,14,38,17.50
2007,05,31,14,39,17.50
2007,05,31,14,40,17.60
2007,05,31,14,41,17.60
2007,05,31,14,42,17.60
2007,05,31,14,43,17.60
2007,05,31,14,44,17.60
2007,05,31,14,45,17.70
2007,05,31,14,46,17.90
2007,05,31,14,47,18.00
2007,05,31,14,48,18.20
2007,05,31,14,49,18.20
2007,05,31,14,50,18.20
2007,05,31,14,51,18.00
2007,05,31,14,52,17.60
2007,05,31,14,53,17.30
2007,05,31,14,54,17.00
2007,05,31,14,55,16.80
2007,05,31,14,56,16.60
2007,05,31,14,57,16.40
2007,05,31,14,58,16.30
2007,05,31,14,59,16.30
2007,05,31,15,00,16.30
2007,05,31,15,01,16.20
2007,05,31,15,02,16.10
2007,05,31,15,03,15.90
2007,05,31,15,04,15.80
2007,05,31,15,05,15.70
2007,05,31,15,06,15.60
2007,05,31,15,07,15.70
2007,05,31,15,08,15.90
2007,05,31,15,09,16.00
2007,05,31,15,10,16.30
2007,05,31,15,11,16.40
2007,05,31,15,12,16.70
2007,05,31,15,13,17.00
2007,05,31,15,14,17.20
2007,05,31,15,15,17.30
2007,05,31,15,16,17.30
2007,05,31,15,17,17.30
2007,05,31,15,18,17.30
2007,05,31,15,19,17.20
2007,05,31,15,20,17.10
2007,05,31,15,21,17.00
2007,05,31,15,22,16.90
2007,05,31,15,23,16.80
2007,05,31,15,24,16.80
2007,05,31,15,25,16.70
2007,05,31,15,26,16.70
2007,05,31,15,27,16.80
2007,05,31,15,28,16.90
2007,05,31,15,29,16.90
2007,05,31,15,30,16.80
2007,05,31,15,31,16.70
2007,05,31,15,32,16.60
2007,05,31,15,33,16.50
2007,05,31,15,34,16.40
2007,05,31,15,35,16.50
2007,05,31,15,36,16.50
2007,05,31,15,37,16.50
2007,05,31,15,38,16.50
2007,05,31,15,39,16.50
2007,05,31,15,40,16.40
2007,05,31,15,41,16.50
2007,05,31,15,42,16.40
2007,05,31,15,43,16.50
2007,05,31,15,44,16.70
2007,05,31,15,45,16.80
2007,05,31,15,46,16.80
2007,05,31,15,47,16.90
2007,05,31,15,48,16.80
2007,05,31,15,49,16.70
2007,05,31,15,50,16.60
2007,05,31,15,51,16.60
2007,05,31,15,52,16.50
2007,05,31,15,53,16.40
2007,05,31,15,54,16.40
2007,05,31,15,55,16.40
2007,05,31,15,56,16.40
2007,05,31,15,57,16.40
2007,05,31,15,58,16.40
2007,05,31,15,59,16.60
2007,05,31,16,00,16.80
2007,05,31,16,01,16.90
2007,05,31,16,02,17.10
2007,05,31,16,03,17.20
2007,05,31,16,04,17.30
2007,05,31,16,05,17.40
2007,05,31,16,06,17.60
2007,05,31,16,07,17.70
2007,05,31,16,08,17.80
2007,05,31,16,09,17.80
2007,05,31,16,10,17.70
2007,05,31,16,11,17.80
2007,05,31,16,12,17.80
2007,05,31,16,13,17.70
2007,05,31,16,14,17.70
2007,05,31,16,15,17.70
2007,05,31,16,16,17.80
2007,05,31,16,17,18.00
2007,05,31,16,18,18.10
2007,05,31,16,19,18.40
2007,05,31,16,20,18.60
2007,05,31,16,21,18.80
2007,05,31,16,22,19.10
2007,05,31,16,23,19.40
2007,05,31,16,24,19.60
2007,05,31,16,25,19.90
2007,05,31,16,26,20.10
2007,05,31,16,27,20.40
2007,05,31,16,28,20.50
2007,05,31,16,29,20.60
2007,05,31,16,30,20.60
2007,05,31,16,31,20.50
2007,05,31,16,32,20.60
2007,05,31,16,33,20.60
2007,05,31,16,34,20.70
2007,05,31,16,35,20.70
2007,05,31,16,36,20.70
2007,05,31,16,37,20.70
2007,05,31,16,38,20.80
2007,05,31,16,39,20.70
2007,05,31,16,40,20.70
2007,05,31,16,41,20.60
2007,05,31,16,42,20.50
2007,05,31,16,43,20.40
2007,05,31,16,44,20.30
2007,05,31,16,45,20.20
2007,05,31,16,46,19.90
2007,05,31,16,47,19.80
2007,05,31,16,48,19.70
2007,05,31,16,49,19.60
2007,05,31,16,50,19.70
2007,05,31,16,51,19.80
2007,05,31,16,52,19.80
2007,05,31,16,53,19.80
2007,05,31,16,54,19.60
2007,05,31,16,55,19.50
2007,05,31,16,56,19.40
2007,05,31,16,57,19.30
2007,05,31,16,58,19.20
2007,05,31,16,59,19.20
2007,05,31,17,00,19.10
2007,05,31,17,01,19.10
2007,05,31,17,02,19.10
2007,05,31,17,03,19.10
2007,05,31,17,04,19.10
2007,05,31,17,05,19.00
2007,05,31,17,06,19.00
2007,05,31,17,07,18.90
2007,05,31,17,08,18.90
2007,05,31,17,09,18.80
2007,05,31,17,10,18.70
2007,05,31,17,11,18.70
2007,05,31,17,12,18.60
2007,05,31,17,13,18.50
2007,05,31,17,14,18.40
2007,05,31,17,15,18.30
2007,05,31,17,16,18.20
2007,05,31,17,17,17.90
2007,05,31,17,18,17.70
2007,05,31,17,19,17.50
2007,05,31,17,20,17.40
2007,05,31,17,21,17.40